Home > Weather > Halifax > Past weeks

Flag for Canada Weather for the Past 2 Weeks in Halifax, Nova Scotia, Canada

Now
25 °F

Overcast.


Feels Like: 16 °F
Forecast: N/A
Wind: 8 mph from North

Location: Halifax International Airport

Current Time: Feb 9, 2016 at 5:48:24 PM

Latest Report: Feb 9, 2016 at 5:00 PM


Visibility: 15 mi

Pressure: 29.54 "Hg

Humidity: 86%

Dew point: 21 °F

Location of HalifaxLocation

Historic Weather in Halifax — Graph

°F

Halifax Temperature Yesterday

Maximum temperature yesterday: 23 °F (at 12:00 PM)
Minimum temperature yesterday: 16 °F (at 2:00 AM)
Average temperature yesterday: 20 °F

High & Low Weather Summary for the Past Weeks

 TemperatureHumidityPressure
High50 °F (Feb 4, 8:00 AM)100% (Jan 26, 8:00 AM)30.54 "Hg (Jan 26, 8:00 AM)
Low14 °F (Feb 3, 6:00 AM)40% (Feb 2, 3:00 PM)29.01 "Hg (Jan 29, 5:00 PM)
Average31 °F86%29.92 "Hg
* Reported Jan 25 4:00 PM — Feb 9 4:00 PM, Halifax, Weather by CustomWeather, © 2016

Note: Actual official high and low records may vary slightly from our data, if they occured in-between our weather recording intervals... More about our weather records

Advertising

Halifax Weather History for the Previous 24 Hours

 ConditionsComfort  
Time TempWeatherWind HumidityBarometerVisibility
4:00 PM
Tue, Feb 9
27 °FOvercast.7 mph80%29.56 "Hg15 mi
3:00 PM27 °FOvercast.8 mph80%29.55 "Hg15 mi
2:00 PM28 °FPartly sunny.7 mph74%29.57 "Hg15 mi
1:00 PM27 °FOvercast.8 mph80%29.58 "Hg15 mi
12:00 PM27 °FOvercast.10 mph80%29.57 "Hg15 mi
11:00 AM25 °FLight snow. Mostly cloudy.10 mph86%29.58 "Hg4 mi
10:00 AM25 °FLight snow. Mostly cloudy.13 mph93%29.55 "Hg1 mi
9:00 AM23 °FLight snow. Ice fog.14 mph93%29.54 "Hg1 mi
8:00 AM23 °FLight snow. Ice fog.14 mph100%29.52 "Hg1 mi
7:00 AM23 °FLight snow. Ice fog.15 mph93%29.51 "Hg1 mi
6:00 AM23 °FLight snow. Ice fog.17 mph93%29.47 "Hg2 mi
5:00 AM23 °FLight snow. Ice fog.18 mph100%29.46 "Hg2 mi
4:00 AM25 °FLight snow. Ice fog.18 mph93%29.44 "Hg2 mi
3:00 AM25 °FLight snow. Ice fog.16 mph100%29.44 "Hg1 mi
2:00 AM25 °FLight snow. Ice fog.18 mph93%29.41 "Hg1 mi
1:00 AM23 °FLight snow. Ice fog.20 mph100%29.41 "Hg1 mi
12:00 AM23 °FLight snow. Ice fog.22 mph100%29.41 "Hg1 mi
11:00 PM
Mon, Feb 8
23 °FLight snow. Ice fog.21 mph93%29.45 "Hg1 mi
10:00 PM23 °FLight snow. Ice fog.21 mph93%29.48 "Hg1 mi
9:00 PM23 °FLight snow. Ice fog.24 mph93%29.53 "Hg1 mi
8:00 PM21 °FSnow. Ice fog.23 mph100%29.57 "Hg1 mi
7:00 PM21 °FSnow. Ice fog.22 mph93%29.63 "Hg1 mi
6:00 PM21 °FLight snow. Ice fog.24 mph93%29.67 "Hg1 mi
5:00 PM21 °FSnow. Ice fog.22 mph93%29.69 "Hg0 mi
Weather by CustomWeather, © 2016

See weather overviewHow to use our weather pages